User: anonymous   Login
Location: Clinton NY
(43.0598°N, 75.3602°W)
Time: 22:31:14
(UTC-04:00)
Language:

Iridium 11 - Orbit

View from above orbital plane
View from above orbital plane
View from above satellite
View from above satellite

Ground track
Ground track

The orbit data is extracted from the following two-line orbital elements,

1 25578U 98074B   17267.48582010  .00000140  00000-0  42995-4 0  9994
2 25578  86.3991 214.0610 0002187  80.9207  54.3307 14.34217628991631
Epoch (UTC): 24 September 2017 11:39:34
Eccentricity: 0.0002187
inclination: 86.3991°
perigee height: 776 km
apogee height: 779 km
right ascension of ascending node: 214.0610°
argument of perigee: 80.9207°
revolutions per day: 14.34217628
mean anomaly at epoch: 54.3307°
orbit number at epoch: 99163

The dashed part of the orbit path shows where the satellite is in the earth's shadow,  

DLR